Powrót do katalogu

STARLINK-30899

AktywnyŁącznośćVLEO
NORAD 58420·PAYLOAD·🇺🇸 United States

Wystrzelony Nov 22, 2023 z Cape Canaveral Space Force Station

Loading…

Następne Przeloty (najbliższe 24 godziny)

TLE

ŚwieżeSource: CelesTrak SupGP

Epoka: Sep 14, 2026, 20:47 UTC

1 58420C 23180U   26257.86645833  .00052689  00000+0  19080-2 0  2574
2 58420  43.0002  63.8698 0001548 270.3595  21.7739 15.27558967    14

Śledź STARLINK-30899 w czasie rzeczywistym z AllMySat

Download on the App Store